Location: Cardiff
(53.7833°N, 113.6000°W)
Time: 21:29:56
(UTC+00:00)

Oscar 19 - Pass Details

Date: 11 December 2023
Orbit: 771 x 789 km, 98.9° (Epoch: 04 March)

Event Time Altitude Azimuth Distance (km) Brightness Sun altitude
Rises 12:03:23 0° 19° (NNE) 3,279 14.1 -30.7°
Reaches altitude 10° 12:05:47 10° 25° (NNE) 2,349 13.4 -30.3°
Maximum altitude 12:10:49 49° 100° (E) 1,010 11.5 -29.6°
Drops below altitude 10° 12:15:49 10° 175° (S) 2,343 13.1 -28.9°
Sets 12:18:13 0° 181° (S) 3,270 13.9 -28.5°
